Bellefontaine, OH

10:42 PM EDT on August 16, 2017 (GMT -0400)
Bellefontaine

Weather History for KEDJ - November, 2011

Change the Weather History Date:

Thursday, November 3, 2011

  Actual Average (KDLZ) Record (KDLZ)
Temperature  
Mean Temperature 50 °F -  
Max Temperature 57 °F 58 °F 78 °F (1961)
Min Temperature 44 °F 35 °F 18 °F (1951)
Degree Days  
Heating Degree Days 14    
Moisture  
Dew Point 38 °F    
Average Humidity 64    
Maximum Humidity 87    
Minimum Humidity 48    
Precipitation  
Precipitation 0.00 in - - ()
Sea Level Pressure  
Sea Level Pressure 29.97 in    
Wind  
Wind Speed 9 mph (SE)    
Max Wind Speed 14 mph    
Max Gust Speed 18 mph    
Visibility 10 miles    
Events      
Averages and records for this station are not official NWS values.
T = Trace of Precipitation, MM = Missing Value Source: NWS Daily Summary

Daily Weather History Graph

Daily Weather History Graph

Search for Another Location

Airport or City:

Trip Planner

Search our weather history database for the weather conditions in past years. The results will help you decide how hot, cold, wet, or windy it might be!

Date:

Astronomy

Nov. 03, 2011 Rise Set
Actual Time 8:06 AM EDT 6:30 PM EDT
Civil Twilight 7:38 AM EDT 6:58 PM EDT
Nautical Twilight 7:06 AM EDT 7:30 PM EDT
Astronomical Twilight 6:34 AM EDT 8:02 PM EDT
Moon 2:54 PM EDT (11/3) 1:17 AM EDT (11/3)
Length of Visible Light 11h 19m
Length of Day
10h 23m
First Quarter, 60% of the Moon is Illuminated
Nov 3
First Quarter
Nov 10
Full
Nov 18
Last Quarter
Nov 25
New
Dec 2
First Quarter

Hourly Weather History & Observations

Time (EDT) Temp. Windchill Dew Point Humidity Pressure Visibility Wind Dir Wind Speed Gust Speed Precip Events Conditions
12:10 AM 51.8 °F - 37.4 °F 58% 30.06 in 10.0 mi SSE 8.1 mph - 0.00 in   Clear
12:30 AM 51.8 °F - 39.2 °F 62% 30.03 in 10.0 mi SSE 12.7 mph - 0.00 in   Clear
12:45 AM 53.6 °F - 37.4 °F 54% 30.03 in 10.0 mi South 11.5 mph - 0.00 in   Clear
1:10 AM 51.8 °F - 37.4 °F 58% 30.04 in 10.0 mi South 6.9 mph - 0.00 in   Clear
1:50 AM 50.0 °F - 37.4 °F 62% 30.03 in 10.0 mi SSE 9.2 mph - 0.00 in   Clear
2:05 AM 50.0 °F - 37.4 °F 62% 30.03 in 10.0 mi SSE 9.2 mph - 0.00 in   Clear
2:25 AM 48.2 °F - 37.4 °F 66% 30.03 in 10.0 mi SSE 8.1 mph - 0.00 in   Clear
2:50 AM 48.2 °F - 37.4 °F 66% 30.02 in 10.0 mi SSE 8.1 mph - 0.00 in   Clear
3:10 AM 48.2 °F - 37.4 °F 66% 30.02 in 10.0 mi SE 9.2 mph - 0.00 in   Clear
3:30 AM 48.2 °F - 37.4 °F 66% 30.02 in 10.0 mi SSE 9.2 mph - 0.00 in   Clear
3:50 AM 48.2 °F - 37.4 °F 66% 30.02 in 10.0 mi SSE 6.9 mph - 0.00 in   Clear
4:10 AM 48.2 °F - 37.4 °F 66% 30.01 in 10.0 mi SSE 9.2 mph - 0.00 in   Clear
4:25 AM 48.2 °F - 37.4 °F 66% 30.01 in 10.0 mi SSE 6.9 mph - 0.00 in   Clear
4:50 AM 48.2 °F - 37.4 °F 66% 30.00 in 10.0 mi SSE 6.9 mph - 0.00 in   Clear
5:10 AM 48.2 °F - 35.6 °F 62% 30.00 in 10.0 mi SSE 6.9 mph - 0.00 in   Clear
5:50 AM 46.4 °F 42.4 °F 35.6 °F 66% 30.00 in 10.0 mi South 8.1 mph - 0.00 in   Clear
6:05 AM 46.4 °F 42.9 °F 35.6 °F 66% 30.00 in 10.0 mi SSE 6.9 mph - 0.00 in   Clear
6:25 AM 44.6 °F 40.2 °F 35.6 °F 71% 30.00 in 10.0 mi SSE 8.1 mph - 0.00 in   Clear
6:50 AM 44.6 °F 39.7 °F 35.6 °F 71% 29.99 in 10.0 mi SE 9.2 mph - 0.00 in   Clear
7:10 AM 46.4 °F 41.9 °F 35.6 °F 66% 29.99 in 10.0 mi SE 9.2 mph - 0.00 in   Clear
7:30 AM 44.6 °F 39.7 °F 35.6 °F 71% 29.99 in 10.0 mi SE 9.2 mph - 0.00 in   Clear
7:50 AM 44.6 °F 39.7 °F 35.6 °F 71% 29.99 in 10.0 mi SE 9.2 mph - 0.00 in   Clear
8:05 AM 44.6 °F 39.7 °F 35.6 °F 71% 29.99 in 10.0 mi SE 9.2 mph - 0.00 in   Clear
8:25 AM 44.6 °F 39.7 °F 35.6 °F 71% 30.00 in 10.0 mi SE 9.2 mph - 0.00 in   Clear
8:50 AM 46.4 °F 42.4 °F 35.6 °F 66% 29.99 in 10.0 mi SE 8.1 mph - 0.00 in   Clear
9:05 AM 46.4 °F 41.9 °F 35.6 °F 66% 29.99 in 10.0 mi SSE 9.2 mph - 0.00 in   Clear
9:25 AM 46.4 °F 41.9 °F 35.6 °F 66% 30.00 in 10.0 mi SSE 9.2 mph - 0.00 in   Clear
9:50 AM 48.2 °F - 35.6 °F 62% 30.00 in 10.0 mi SSE 9.2 mph - 0.00 in   Clear
10:30 AM 51.8 °F - 35.6 °F 54% 30.00 in 10.0 mi South 10.4 mph - 0.00 in   Clear
10:50 AM 51.8 °F - 37.4 °F 58% 29.99 in 10.0 mi South 9.2 mph - 0.00 in   Clear
11:05 AM 51.8 °F - 37.4 °F 58% 29.99 in 10.0 mi South 9.2 mph - 0.00 in   Clear
11:25 AM 53.6 °F - 37.4 °F 54% 29.99 in 10.0 mi SSE 9.2 mph - 0.00 in   Clear
11:50 AM 55.4 °F - 37.4 °F 51% 29.97 in 10.0 mi SSE 8.1 mph - 0.00 in   Clear
12:10 PM 57.2 °F - 37.4 °F 48% 29.95 in 10.0 mi SSE 8.1 mph - 0.00 in   Clear
12:25 PM 55.4 °F - 37.4 °F 51% 29.96 in 10.0 mi SSE 9.2 mph - 0.00 in   Clear
12:50 PM 55.4 °F - 37.4 °F 51% 29.94 in 10.0 mi SSE 9.2 mph - 0.00 in   Clear
1:30 PM 55.4 °F - 37.4 °F 51% 29.92 in 10.0 mi South 10.4 mph - 0.00 in   Clear
1:50 PM 55.4 °F - 39.2 °F 54% 29.90 in 10.0 mi SE 5.8 mph - 0.00 in   Clear
2:10 PM 55.4 °F - 39.2 °F 54% 29.91 in 10.0 mi SSE 6.9 mph - 0.00 in   Clear
2:30 PM 55.4 °F - 39.2 °F 54% 29.89 in 10.0 mi SE 6.9 mph - 0.00 in   Clear
2:50 PM 55.4 °F - 39.2 °F 54% 29.89 in 10.0 mi SSE 6.9 mph - 0.00 in   Clear
3:10 PM 55.4 °F - 39.2 °F 54% 29.88 in 10.0 mi SE 4.6 mph - 0.00 in   Clear
3:30 PM 55.4 °F - 39.2 °F 54% 29.89 in 10.0 mi South 4.6 mph - 0.00 in   Scattered Clouds
3:50 PM 55.4 °F - 39.2 °F 54% 29.88 in 10.0 mi Calm Calm - 0.00 in   Mostly Cloudy
4:05 PM 55.4 °F - 41.0 °F 58% 29.88 in 10.0 mi Calm Calm - 0.00 in   Overcast
4:50 PM 53.6 °F - 42.8 °F 67% 29.86 in 10.0 mi NE 4.6 mph - 0.00 in   Overcast
5:10 PM 53.6 °F - 42.8 °F 67% 29.89 in 10.0 mi NNE 3.5 mph - 0.00 in   Overcast
5:30 PM 51.8 °F - 44.6 °F 76% 29.89 in 8.0 mi North 5.8 mph - 0.00 in   Overcast
5:50 PM 51.8 °F - 46.4 °F 82% 29.89 in 10.0 mi North 9.2 mph - 0.00 in   Overcast
6:10 PM 50.0 °F - 41.0 °F 71% 29.89 in 10.0 mi NNE 9.2 mph - 0.00 in   Overcast
6:30 PM 50.0 °F - 41.0 °F 71% 29.91 in 10.0 mi NE 10.4 mph - 0.00 in   Overcast
6:50 PM 50.0 °F - 42.8 °F 76% 29.92 in 10.0 mi NE 11.5 mph - 0.00 in   Overcast
7:10 PM 50.0 °F - 44.6 °F 82% 29.92 in 10.0 mi NE 12.7 mph - 0.00 in   Overcast
7:30 PM 50.0 °F - 44.6 °F 82% 29.93 in 10.0 mi NE 11.5 mph 18.4 mph 0.00 in   Overcast
7:50 PM 50.0 °F - 44.6 °F 82% 29.93 in 10.0 mi NE 11.5 mph - 0.00 in   Overcast
8:05 PM 48.2 °F - 44.6 °F 87% 29.93 in 9.0 mi NE 13.8 mph 17.3 mph 0.00 in   Overcast
8:25 PM 48.2 °F - 44.6 °F 87% 29.93 in 9.0 mi NE 15.0 mph - 0.00 in   Overcast
8:50 PM 48.2 °F - 46.4 °F 93% 29.93 in 10.0 mi NE 15.0 mph 20.7 mph 0.00 in   Overcast
9:10 PM 48.2 °F - 46.4 °F 93% 29.94 in - NNE 15.0 mph 23.0 mph 0.00 in   Unknown
9:30 PM 48.2 °F - 46.4 °F 93% 29.95 in - NNE 11.5 mph - 0.00 in   Overcast
9:45 PM 48.2 °F - 46.4 °F 93% 29.95 in - NNE 13.8 mph 19.6 mph 0.00 in   Overcast
10:10 PM 48.2 °F - 48.2 °F 100% 29.97 in 4.0 mi NNE 13.8 mph 18.4 mph 0.00 in   Overcast
10:25 PM 48.2 °F - 46.4 °F 93% 29.97 in - NNE 13.8 mph 19.6 mph 0.02 in   Overcast
10:50 PM 46.4 °F 39.5 °F 46.4 °F 100% 29.98 in - NNE 17.3 mph - 0.03 in   Overcast
11:10 PM 46.4 °F 40.1 °F 46.4 °F 100% 29.98 in 6.0 mi NNE 15.0 mph 21.9 mph 0.00 in   Overcast
11:30 PM 44.6 °F 37.4 °F 44.6 °F 100% 29.98 in 6.0 mi NNE 16.1 mph 20.7 mph 0.00 in   Overcast
11:50 PM 44.6 °F 37.8 °F 44.6 °F 100% 29.99 in 6.0 mi NNE 15.0 mph 24.2 mph 0.01 in   Overcast